Regional Weather Roundup
Issued by NWS

Home | Current Version | Previous Version | Text Only | Print | Product List | Glossary Off
Versions: 1 2 3 4 5 6 7 8 9 10 11 12 13 14 15 16 17 18 19 20 21 22 23 24 25 26 27 28 29 30 31 32 33 34 35 36 37 38 39 40 41 42 43 44 45 46 47 48 49 50

000
ASUS43 KMKX 240600
RWRWI

WISCONSIN REGIONAL WEATHER ROUNDUP
NATIONAL WEATHER SERVICE MILWAUKEE/SULLIVAN WI
100 AM CDT FRI MAR 24 2017

NOTE: "FAIR" INDICATES FEW OR NO CLOUDS BELOW 12,000 FEET WITH NO
SIGNIFICANT WEATHER AND/OR OBSTRUCTIONS TO VISIBILITY.

WIZ001-002-006>008-014>016-023>028-240700-
NORTHWEST WISCONSIN

CITY           SKY/WX    TMP DP  RH WIND       PRES   REMARKS
SUPERIOR ARPT  MIX PCPN  32  32 100 CALM      29.91S
ASHLAND        FOG       33  32  96 CALM      29.91S VSB 3/4
6HR MIN TEMP:  32; 6HR MAX TEMP:  37; 6HR PCP:  0.15;

HAYWARD        CLOUDY    35  31  85 CALM      29.89R FOG
6HR MIN TEMP:  34; 6HR MAX TEMP:  37; 6HR PCP:  0.01;

SIREN          CLOUDY    34  33  97 CALM      29.88F FOG
CUMBERLAND     DRIZZLE   34  32  93 E3        29.88R
RICE LAKE      DRIZZLE   36  36  99 E3        29.91R
CHETEK         DRIZZLE   36  36  99 CALM      29.89S
LADYSMITH      DRIZZLE   36  34  93 CALM      29.90S
EAU CLAIRE     NOT AVBL
MENOMONIE      LGT RAIN  38  37  92 NE6       29.88S WCI  34
NEW RICHMOND   DRIZZLE   36  36  99 E3        29.87F
OSCEOLA        LGT RAIN  37  37 100 E3        29.91S
$$

WIZ003>005-009-010-017-018-240700-
NORTH CENTRAL WISCONSIN

CITY           SKY/WX    TMP DP  RH WIND       PRES   REMARKS
MANITOWISH WTR MIX PCPN  32  32 100 SE3       29.88R
ARBOR VITAE    CLOUDY    34  32  92 SE6       29.88R WCI  29
WOODRUFF       CLOUDY    34  32  92 SE6       29.88R WCI  29
RHINELANDER    CLOUDY    34  30  85 CALM      29.91R
6HR MIN TEMP:  34; 6HR MAX TEMP:  38; 6HR PCP:  0.01;

EAGLE RIVER    MIX PCPN  32  31  97 CALM      29.90R
LAND O LAKES   CLOUDY    32  32  99 S6        29.88F FOG     WCI  26
PHILLIPS       CLOUDY    35  30  80 S3        29.88S
TOMAHAWK       CLOUDY    32  30  93 CALM      29.90F
MEDFORD        RAIN      34  33  96 CALM      29.89R
MERRILL        DRIZZLE   34  32  91 CALM      29.91R
$$

WIZ029-030-035-036-043>047-240700-
CENTRAL WISCONSIN

CITY           SKY/WX    TMP DP  RH WIND       PRES   REMARKS
WAUSAU         LGT RAIN  36  34  92 CALM      29.90R FOG
6HR MIN TEMP:  36; 6HR MAX TEMP:  39; 6HR PCP:  0.05;

MOSINEE        RAIN      36  34  93 S3        29.91R
MARSHFIELD     LGT RAIN  37  33  85 CALM      29.88R
6HR MIN TEMP:  37; 6HR MAX TEMP:  39; 6HR PCP:  0.02;

STEVENS POINT  CLOUDY    36  32  87 CALM      29.91R
WAUPACA        CLOUDY    38  34  86 CALM      29.90S
WAUTOMA        LGT RAIN  40  35  83 S6        29.91S
6HR MIN TEMP:  37; 6HR MAX TEMP:  44; 6HR PCP:  0.03;

WISC RAPIDS    CLOUDY    39  34  82 CALM      29.91R
6HR MIN TEMP:  37; 6HR MAX TEMP:  40; 6HR PCP: TRACE;

CAMP DOUGLAS   NOT AVBL
$$

WIZ011>013-019>022-031-037>040-048>050-240700-
NORTHEAST WISCONSIN

CITY           SKY/WX    TMP DP  RH WIND       PRES   REMARKS
ANTIGO         CLOUDY    32  29  90 SE3       29.90S
SHAWANO        CLOUDY    36  31  79 CALM      29.91F
OCONTO         MOCLDY    33  31  91 CALM      29.93F
STURGEON BAY   MOCLDY    37  33  85 MISG      29.94F
6HR MIN TEMP:  36; 6HR MAX TEMP:  37; 6HR PCP:  0.03;

GREEN BAY      CLOUDY    37  34  89 CALM      29.91F
6HR MIN TEMP:  36; 6HR MAX TEMP:  38; 6HR PCP: TRACE;

MANITOWOC      NOT AVBL
APPLETON       CLOUDY    36  32  87 S7        29.87F WCI  30
CLINTONVILLE   CLOUDY    34  30  86 CALM      29.91F
OSHKOSH        CLOUDY    37  34  89 S5        29.90F WCI  33
6HR MIN TEMP:  36; 6HR MAX TEMP:  39; 6HR PCP:  0.08;

$$

WIZ032>034-041-042-053>061-240700-
SOUTHWEST WISCONSIN

CITY           SKY/WX    TMP DP  RH WIND       PRES   REMARKS
LA CROSSE      CLOUDY    41  36  82 SE3       29.85F
6HR MIN TEMP:  38; 6HR MAX TEMP:  41; 6HR PCP: TRACE;

SPARTA         CLOUDY    39  36  90 CALM      29.87F
VIROQUA        CLOUDY    38  36  90 SE7       29.86F WCI  33
BOSCOBEL       LGT RAIN  43  36  76 S3        29.90F
6HR MIN TEMP:  39; 6HR MAX TEMP:  44; 6HR PCP:  0.01;

PRAIRIE DU CHI CLOUDY    42  34  73 E7        29.87F
PLATTEVILLE    PTCLDY    41  35  79 SE8       29.89S
$$

WIZ056-057-062-063-064-067-068-240700-
SOUTH CENTRAL WISCONSIN

CITY           SKY/WX    TMP DP  RH WIND       PRES   REMARKS
REEDSBURG      CLOUDY    41  35  81 S6        29.90R
BARABOO/DELLS  CLOUDY    40  34  79 CALM      29.89F
LONE ROCK      NOT AVBL
MINERAL POINT  PTCLDY    41  36  81 S13       29.89R
MADISON        PTCLDY    44  34  67 MISG      29.90R
6HR MIN TEMP:  37; 6HR MAX TEMP:  44; 6HR PCP:  0.72;

MIDDLETON      PTCLDY    43  34  70 SW9       29.89R
WATERTOWN      CLOUDY    44  35  72 S18G24    29.88F
MONROE         CLOUDY    41  34  75 S16       29.90F
JANESVILLE     CLOUDY    45  34  65 S15G22    29.91F
$$

WIZ051-052-058>065-066-070>072-240700-
SOUTHEAST WISCONSIN

CITY           SKY/WX    TMP DP  RH WIND       PRES   REMARKS
MILWAUKEE      CLOUDY    43  33  68 S13       29.90F
6HR MIN TEMP:  40; 6HR MAX TEMP:  45; 6HR PCP:  0.16;

WAUKESHA       PTCLDY    41  32  70 S13G20    29.91F
MILWAUKEE/TIMM CLOUDY    43  32  65 S12       29.91F
RACINE         PTCLDY    41  33  73 S14G23    29.93F
6HR MIN TEMP:  41; 6HR MAX TEMP:  44; 6HR PCP:  0.41;

KENOSHA        CLOUDY    42  33  70 S13       29.93F
6HR MIN TEMP:  39; 6HR MAX TEMP:  44; 6HR PCP:  0.01;

FOND DU LAC    CLOUDY    38  33  82 SE5       29.91F WCI  34
6HR MIN TEMP:  37; 6HR MAX TEMP:  42; 6HR PCP:  0.14;

SHEBOYGAN      MOCLDY    37  34  89 MISG      29.94R
6HR MIN TEMP:  36; 6HR MAX TEMP:  38; 6HR PCP:  0.19;

WEST BEND      CLOUDY    43  34  70 S9        29.89S
JUNEAU         CLOUDY    42  34  73 W3        29.92R
$$

LSZ147-162-240700-
LAKE SUPERIOR

STATION/POSITION TIME  TEMP    WIND        PRES    WAVE
                       AIR SEA DIR/SP/G            HT/PER
                 (UTC) (F)     (DEG/KT/KT) (MB)    (FT/S)
DEVILS ISLAND    0500   33     100/  4/  5 1013.7S
PORT WING        0530   33        CALM     1013.2R
SAXON HARBOR     0540   33      80/  2/  2 1012.9R
$$

LMZ867-665-643>646-240700-
LAKE MICHIGAN

STATION/POSITION TIME  TEMP    WIND        PRES    WAVE
                       AIR SEA DIR/SP/G            HT/PER
                 (UTC) (F)     (DEG/KT/KT) (MB)    (FT/S)
CHAMBERS ISLAND  0540   36      CALM  /  4 1014.2F
NORTHPORT PIER   0540   37     150/  4/  7 1014.9F
SISTER BAY       0420   36     200/ 15/ 20   N/A
KEWAUNEE LAKESHO 0530   38     200/ 13/ 18 1013.7F
SHEBOYGAN LAKESH 0500   38     160/  9/ 10 1012.9F
PORT WASHINGTON  0530   38     230/  4/ 19 1013.5F
MILWAUKEE LAKESH 0540   43     180/ 15/ 16   N/A
KENOSHA   LAKESH 0500   39     170/ 13/ 15 1014.9
$$

TC  - TEMPERATURE IN CELSIUS
VSB - VISIBILITY IN STATUTE MILES
WCI - WIND CHILL INDEX
HX  - HEAT INDEX




USA.gov is the U.S. government's official web portal to all federal, state and local government web resources and services.